COSMOS 928

Satellite information

Favourite Embed

Satellite Type and Status

PAYLOADIN ORBIT

Key statistics

Satellite COSMOS 928 at a glance.

Uptime

17465

Days in orbit

Revolutions

≈ 13.8

Per day

Orbit

LEO

Low Earth Orbit

Inclination

83.0

Latest

Satellite identification and parameters

Extended collection of information and parameters for COSMOS 928.

Object identification

Identified? True

Debris? False

Object name: COSMOS 928

International designator: 1977-064A

Object number (NORAD): 10141

Object ID (CCSDS): 10141

Country: COMMONWEALTH OF INDEPENDENT STATES (CIS)

Current information (Y/N): Y

RCS size: LARGE

Orbital parameters

Period: 104.586 minutes

Inclination: 82.9653 deg

SMA: 7353.182 km

Apoapsis: 1003.91 km

Periapsis: 946.185 km

RAAN: 79.688 deg

Eccentricy: 0.0039252

Argument of periapsis: 66.71 deg

Mean anomaly: 293.8181 deg

Mean motion: 13.76859942 rev/day

Mean motion (dot): 0.00000098 rev/day2

B* drag term: 0.000083639 1/REarth

Two-line elements (TLE)

Creation date: May 6, 2025, 3:54 a.m.

Reference frame: TEME

Reference center: EARTH

Epoch: May 5, 2025, 8:18 p.m. UTC

TLE line 0: 0 COSMOS 928

TLE line 1: 1 10141U 77064A 25125.84593106 .00000098 00000-0 83639-4 0 9992

TLE line 2: 2 10141 82.9653 79.6880 0039252 66.7100 293.8181 13.76859942401440

Live tracking on map

Real-time ground track for satellite COSMOS 928.

In-orbit conjunctions

A list of the most updated potential collisions computed for object COSMOS 928.

Target Orbit TCA Probability of collision Miss distance Type
SL-8 R/B LEO 2025-01-14 19:44:38 0.000600538 160.0 (m) ROCKET BODY
FENGYUN 1C DEB SSO 2024-11-29 16:18:17 0.000102295 320.0 (m) DEBRIS
THOR ABLESTAR DEB LEO 2024-11-29 14:52:28 0.002608421 149.0 (m) DEBRIS

Associated space launch

Navigation satellite providing location information for the Tsiklon-B navigation system

COSMOS 928 was lifted into orbit during the mission ‘Kosmos-3M | Parus 9’, on board a Kosmos-3M space rocket.

The launch took place on July 13, 1977, 5:02 a.m. from 132/1 (132L).

For more information about the launch, click the button.

Launch to space Kosmos-3M | Parus 9
Kosmos-3M | Parus 9

Agency: N/A

Status: Launch Successful

Launch date: July 13, 1977, 5:02 a.m. UTC

Rocket: Kosmos-3M

Launch pad: 132/1 (132L)

Location: Plesetsk Cosmodrome, Russian Federation

...

Latest news about this satellite

There are no fresh news available about this satellite. Check back as we update our databases every day.


Newsletter sign-up

Weekly statistics, charts and insights to help you stay on top of the space industry.